Weather History for Detroit Metro, MI

Change the Weather History Date:

Sunday, September 22, 2013

  Actual Average Record
Temperature  
Mean Temperature 57 °F 62 °F  
Max Temperature 62 °F 72 °F 91 °F (1941)
Min Temperature 51 °F 52 °F 30 °F (1974)
Degree Days  
Heating Degree Days 8 5  
Month to date heating degree days 64 53  
Since 1 July heating degree days 76 63  
Cooling Degree Days 0 2  
Month to date cooling degree days 78 74  
Year to date cooling degree days 871 785  
Growing Degree Days 6 (Base 50)    
Moisture  
Dew Point 40 °F    
Average Humidity 58    
Maximum Humidity 68    
Minimum Humidity 47    
Precipitation  
Precipitation 0.00 in 0.11 in 1.84 in (1986)
Month to date precipitation 1.10 2.46  
Year to date precipitation 32.08 24.89  
Snow  
Snow 0.00 in 0.00 in 0.00 in ()
Month to date snowfall 0.0 0.0  
Since 1 July snowfall 0.0 0.0  
Since 1 September snowfall 0.0 0.0  
Snow Depth 0.00 in    
Sea Level Pressure  
Sea Level Pressure 30.00 in    
Wind  
Wind Speed 9 mph (NNW)    
Max Wind Speed 16 mph    
Max Gust Speed 22 mph    
Visibility 10 miles    
Events      
T = Trace of Precipitation, MM = Missing Value Source: NWS Daily Summary

Daily Weather History Graph

Daily Weather History Graph

Search for Another Location

Airport:

Trip Planner

Search our weather history database for the weather conditions in past years. The results will help you decide how hot, cold, wet, or windy it might be!

Date:

Astronomy

Sep. 22, 2013 Rise Set
Actual Time 7:20 AM EDT 7:30 PM EDT
Civil Twilight 6:52 AM EDT 7:58 PM EDT
Nautical Twilight 6:20 AM EDT 8:30 PM EDT
Astronomical Twilight 5:46 AM EDT 9:04 PM EDT
Moon 9:14 PM EDT (9/22) 10:44 AM EDT (9/22)
Length of Visible Light 13h 05m
Length of Day
12h 09m
Waning Gibbous, 89% of the Moon is Illuminated
Sep 22
Waning Gibbous
Sep 26
Last Quarter
Oct 4
New
Oct 11
First Quarter
Oct 18
Full

Hourly Weather History & Observations

Time (EDT) Temp. Dew Point Humidity Pressure Visibility Wind Dir Wind Speed Gust Speed Precip Events Conditions
12:53 AM 55.9 °F 43.0 °F 62% 29.89 in 10.0 mi NW 8.1 mph - N/A   Mostly Cloudy
1:53 AM 55.0 °F 42.1 °F 62% 29.91 in 10.0 mi NW 10.4 mph - N/A   Mostly Cloudy
2:53 AM 54.0 °F 39.9 °F 59% 29.91 in 10.0 mi NW 10.4 mph - N/A   Mostly Cloudy
3:53 AM 53.1 °F 39.9 °F 61% 29.92 in 10.0 mi WNW 9.2 mph - N/A   Mostly Cloudy
4:53 AM 53.1 °F 39.0 °F 59% 29.93 in 10.0 mi NW 11.5 mph - N/A   Mostly Cloudy
5:53 AM 52.0 °F 37.0 °F 57% 29.94 in 10.0 mi NNW 13.8 mph 21.9 mph N/A   Mostly Cloudy
6:53 AM 51.1 °F 37.9 °F 61% 29.96 in 10.0 mi NW 4.6 mph - N/A   Mostly Cloudy
7:53 AM 51.1 °F 39.9 °F 66% 29.98 in 10.0 mi NW 6.9 mph - N/A   Mostly Cloudy
8:53 AM 52.0 °F 39.0 °F 61% 30.00 in 10.0 mi NW 10.4 mph - N/A   Mostly Cloudy
9:53 AM 52.0 °F 37.9 °F 59% 30.01 in 10.0 mi NNW 10.4 mph - N/A   Mostly Cloudy
10:53 AM 55.0 °F 39.0 °F 55% 30.03 in 10.0 mi NNW 12.7 mph - N/A   Mostly Cloudy
11:53 AM 55.0 °F 39.9 °F 57% 30.03 in 9.0 mi NW 10.4 mph - N/A   Mostly Cloudy
12:53 PM 57.9 °F 41.0 °F 53% 30.03 in 10.0 mi NNW 9.2 mph - N/A   Scattered Clouds
1:53 PM 59.0 °F 39.9 °F 49% 30.03 in 10.0 mi North 8.1 mph - N/A   Mostly Cloudy
2:53 PM 60.1 °F 41.0 °F 49% 30.01 in 10.0 mi NW 10.4 mph - N/A   Scattered Clouds
3:53 PM 61.0 °F 42.1 °F 50% 30.02 in 10.0 mi North 4.6 mph - N/A   Scattered Clouds
4:53 PM 61.0 °F 42.1 °F 50% 30.01 in 10.0 mi West 8.1 mph - N/A   Mostly Cloudy
5:53 PM 60.1 °F 42.1 °F 51% 30.02 in 10.0 mi WNW 9.2 mph - N/A   Scattered Clouds
6:53 PM 55.9 °F 42.1 °F 60% 30.04 in 10.0 mi North 10.4 mph - N/A   Mostly Cloudy
7:53 PM 54.0 °F 39.9 °F 59% 30.06 in 10.0 mi North 6.9 mph - N/A   Mostly Cloudy
8:53 PM 54.0 °F 41.0 °F 62% 30.07 in 10.0 mi North 5.8 mph - N/A   Mostly Cloudy
9:53 PM 53.1 °F 41.0 °F 64% 30.09 in 10.0 mi NNE 6.9 mph - N/A   Mostly Cloudy
10:53 PM 53.1 °F 41.0 °F 64% 30.09 in 10.0 mi NNE 8.1 mph - N/A   Mostly Cloudy
11:53 PM 52.0 °F 41.0 °F 66% 30.10 in 10.0 mi NE 5.8 mph - N/A   Mostly Cloudy